Tracking 30986 objects as of 9-Jul-2025
HD Live streaming from Space Station
objects crossing your sky now

CZ-6A DEB

Track CZ-6A DEB now!
10-day predictions


NORAD ID: 54514
Int'l Code: 2022-151JS
Perigee: 721.6 km
Apogee: 830.5 km
Inclination: 98.7 °
Period: 100.2 minutes
Semi major axis: 7147 km
RCS: Unknown
Launch date: November 11, 2022
Source: People's Republic of China (PRC)
Launch site: Taiyaun Space Center, China (TSC)

Note: This is SATELLITE DEBRIS
Your satellite tracking list
Your tracking list is empty




NASA's NSSDC Master Catalog

Two Line Element Set (TLE):
1 54514U 22151JS  25190.08958951  .00000273  00000-0  10487-3 0  9997
2 54514  98.7261 227.4094 0076174 251.8605 107.4275 14.36850054138929
Source of the keplerian elements: AFSPC